sat.trackr.live / text

‹ back to catalog

STARLINK-35088

NORAD 65344 · 2025-189X

PAYLOAD ACTIVE UNKNOWN

§ Identity

Operator
Country
US
Launch date
2025-08-27
Launch site
AFETR
Launch vehicle
Mass (kg)
RCS (m²)

Purposes: comms

External: N2YO · Heavens-Above · Gunter

§ Orbital elements

Epoch: 2026-09-20T20:12:26.639136Z

Period
93.85 min
Inclination
53.1609°
Eccentricity
0.0000764
Mean motion
15.34419006 rev/d
Perigee alt
462.1 km
Apogee alt
463.2 km
Semi-major
6,840.8 km
B*
6.6771e-4
RAAN
18.2853°
Arg perigee
66.9416°
Mean anomaly
293.1667°
Rev number
6,102

§ Raw data

STARLINK-350881 65344U 25189X   26263.84197499  .00022264  00000+0  66771-3 0  99922 65344  53.1609  18.2853 0000764  66.9416 293.1667 15.34419006 61020

JSON: /api/v1/satellites/65344 · /tle

For live sub-satellite position, see the globe view (requires WebGL).

§ Visibility from observer

Set your observer location to see the next 7 days of passes ≥ 10°. The values pass through the URL so the page stays shareable.

No JS? Fill the form by hand. The geolocation button needs JavaScript.